Location: L�r Na Cruinne Observatory
(51.0505°N, 114.1691°W)
Time: 05:16:13
(UTC-06:00)

Envisat - Visible Passes

Search period start: 17 August 2019 00:00
Search period end: 27 August 2019 00:00
Orbit: 764 x 766 km, 98.1° (Epoch: 17 August)

Date Brightness Start Highest point End Pass type
(mag) Time Alt. Az. Time Alt. Az. Time Alt. Az.
19 Aug 6.5 21:39:22 10° W 21:40:12 10° W 21:41:02 10° WNW visible
22 Aug 6.1 21:26:26 10° WSW 21:28:46 13° W 21:31:07 10° WNW visible
25 Aug 5.9 21:14:15 10° SW 21:17:21 16° W 21:20:29 10° NW visible
